Location: Shenandoah County Park
(38.9356°N, 78.4524°W)
Time: 15:21:13
(UTC-05:00)

Vanguard 2 Rocket - Pass Details

Date: 11 December 2023
Orbit: 555 x 3309 km, 32.9° (Epoch: 03 March)

Event Time Altitude Azimuth Distance (km) Brightness Sun altitude
Rises 10:36:32 0° 201° (SSW) 4,555 11.2 24.5°
Reaches altitude 10° 10:39:46 10° 188° (S) 3,945 11.3 24.8°
Maximum altitude 10:48:38 28° 135° (SE) 3,621 11.5 25.4°
Drops below altitude 10° 11:01:24 10° 87° (E) 5,813 11.2 26.2°
Sets 11:07:31 0° 78° (ENE) 7,114 11.5 26.5°
